1st Responders/1st Detectors/Storm Spotters Weather Summary for Scott County, KY

Forecast Maps


Reg. NEXRAD Animation


National Fire Danger: Day 1 & 2 Map

Current NWS Watch/Warnings

SPC Convective Day 1 Outlook


Day 2 Outlook

(Click images to enlarge|Page will refresh every 5 minutes)
UK Ag. Weather Center Desktop Severe Weather Service[HERE]
Scott County, KY Hazardous Weather Outlook Webcast
(9 AM to 9 PM Mon-Fri)
[Fast]
[Dial-up]


UKAWC 1st Detectors/1st Responders Precision Weather Forecast For SCOTT County, Kentucky
(based on the NWS County Digital Forecast)

ISSUED AT 20:00 UTC ON THURSDAY APR 19 2018
DAY THURSDAY
EDT 3HR 5P 6P 7P
MAX/MIN -- -- 50°
TEMP 50° 49° 49°
SKY COVER 22% 17% 12%
Clouds
DEW PT 31° 31° 31°
RH 48% 49% 49%
POP 12HR -- -- --
RAIN/SNOW (liq.equ) -- -- --
SNOWFALL -- -- --
WIND SPEED(MPH) 10 9 7
WIND Gust(MPH) 16 15 13
WIND DIR N N NW
DEW -- -- --
HeatIndex 50 49 49
Rain Showers -- -- --
Frost -- -- --
WIND CHILL -- -- --
SPRAY COND
DRY COND
LIVESTOCK COLDSTRESS
LIVESTOCK HEATSTRESS 52.52 51.75 51.75



DAY FRIDAY SATURDAY SUNDAY MONDAY TUESDAY WEDNESDAY
EDT 6HR 8P 9P 10P 11P MIDN 1A 2A 3A 4A 5A 6A 7A 8A 9A 10A 11A NOON 1P 2P 3P 4P 5P 6P 7P 8P 9P 10P 11P MIDN 1A 2A 3A 4A 5A 8A 11A 2P 5P 8P 2A 8A 2P 8P 2A 8A 2P 8P 2A 8A 2P 8P 2A 8A 2P 8P
MAX/MIN -- -- -- -- -- -- -- -- -- -- -- -- 31° -- -- -- -- -- -- -- -- -- -- 58° -- -- -- -- -- -- -- -- -- -- 34° -- -- 61° -- -- 40° 65° -- -- 45° 65° -- -- 49° 63° -- -- 47° 65° --
TEMP 47° 43° 40° 38° 38° 36° 36° 34° 34° 31° 31° 31° 32° 38° 43° 47° 52° 54° 56° 58° 58° 58° 58° 54° 52° 49° 45° 43° 40° 40° 40° 38° 36° 34° 38° 52° 61° 61° 56° 45° 43° 63° 59° 47° 47° 63° 58° 50° 50° 63° 59° 49° 50° 63° 61°
SKY COVER 6% 9% 8% 6% 6% 5% 5% 4% 4% 3% 3% 4% 4% 3% 2% 2% 2% 2% 2% 2% 2% 1% 2% 2% 2% 2% 3% 4% 4% 4% 4% 4% 5% 6% 14% 20% 29% 24% 54% 63% 67% 64% 67% 58% 52% 71% 77% 79% 76% 74% 81% 80% 77% 75% 67%
Clouds
DEW PT 31° 29° 29° 29° 29° 29° 29° 27° 27° 27° 27° 27° 27° 27° 27° 27° 29° 29° 29° 29° 29° 29° 29° 31° 31° 31° 29° 29° 29° 29° 29° 29° 29° 27° 29° 31° 34° 36° 36° 32° 34° 40° 40° 38° 38° 47° 45° 43° 45° 49° 49° 47° 47° 49° 47°
RH 53% 57% 64% 67% 69% 72% 72% 75% 78% 81% 85% 84% 81% 66% 55% 45% 40% 36% 35% 34% 33% 33% 34% 39% 44% 50% 55% 60% 64% 67% 67% 70% 72% 75% 69% 46% 37% 37% 46% 62% 69% 43% 49% 68% 70% 53% 61% 77% 80% 60% 66% 92% 85% 60% 57%
POP 12HR 21% -- -- -- -- -- -- -- -- -- -- -- 0% -- -- -- -- -- -- -- -- -- -- -- 0% -- -- -- -- -- -- -- -- -- 1% -- -- -- 1% -- 0% -- 0% -- 2% -- 24% -- 36% -- 35% -- 22% -- 39%
RAIN/SNOW (liq.equ) 0.00in -- -- -- -- -- 0.00in -- -- -- -- -- 0.00in -- -- -- -- -- 0.00in -- -- -- -- -- 0.00in -- -- -- -- -- 0.00in -- -- -- 0.00in -- 0.00in -- 0.00in -- -- -- -- -- -- -- -- -- -- -- -- -- -- -- --
SNOWFALL 0in -- -- -- -- -- 0in -- -- -- -- -- 0in -- -- -- -- -- 0in -- -- -- -- -- 0in -- -- -- -- -- 0in -- -- -- 0in -- 0in -- 0in -- -- -- -- -- -- -- -- -- -- -- -- -- -- -- --
WIND SPEED(MPH) 6 7 6 6 6 6 6 5 5 5 5 5 5 7 7 7 7 7 7 7 7 7 7 7 7 7 6 6 6 7 7 7 7 7 7 8 7 8 7 7 8 8 8 7 7 9 10 8 9 8 7 6 7 8 8
WIND DIR NW NW NW NW NW N N N N N N N N NE NE NE NE NE NE NE N N NE NE NE NE NE NE NE NE NE NE NE NE E E E NE NE E E E NE E E SE E E E SE E SE SW W W
HeatIndex 47 40 37 34 33 32 32 31 29 27 26 26 28 32 38 47 52 54 56 58 58 58 58 54 52 49 41 39 37 35 35 32 31 29 32 52 61 61 56 40 37 63 59 47 47 63 58 50 50 63 59 49 50 63 61
Rain Showers -- -- -- -- -- -- -- -- -- -- -- -- -- -- -- -- -- -- -- -- -- -- -- -- -- -- -- -- -- -- -- -- -- -- -- -- -- -- -- -- -- -- -- -- -- Slight Chance Chance Chance Chance Chance Slight Chance -- Chance Chance Slight Chance
Frost -- -- -- -- -- Areas of Areas of Areas of Widespread Widespread Widespread Widespread Widespread -- -- -- -- -- -- -- -- -- -- -- -- -- -- -- -- -- -- -- Areas of Areas of -- -- -- -- -- -- -- -- -- -- -- -- -- -- -- -- -- -- -- -- --
WIND CHILL -- 39° 36° 34° 34° 31° 31° 30° 30° 26° 26° 26° 28° 33° 39° -- -- -- -- -- -- -- -- -- -- -- 42° 39° 36° 35° 35° 33° 30° 28° 33° -- -- -- -- 41° 38° -- -- -- -- -- -- -- -- -- -- -- -- -- --
SPRAY COND
DRY COND
LIVESTOCK COLDSTRESS
LIVESTOCK HEATSTRESS 50.05 46.74 43.72 41.78 41.55 39.51 39.51 37.41 37.00 33.91 33.29 33.45 34.80 41.89 46.91 50.57 54.24 55.69 57.00 58.29 58.29 58.29 58.29 55.61 54.09 51.70 48.42 46.48 43.72 43.41 43.41 41.43 39.51 37.41 41.55 54.02 60.24 60.24 56.83 47.88 45.69 61.68 58.94 49.08 48.95 61.91 58.17 51.11 50.97 62.08 58.96 49.43 50.73 62.08 60.48

Click on individual weather variable above in left-hand column (ie., TEMP, RH, QPF 12HR) to view state forecast maps






NWS 48 Hr. Forecast Maps,

Regional Hourly Observations For SCOTT County, Kentucky
Issued at 500 PM EDT THU APR 19 2018
...CENTRAL KENTUCKY...
  
CITY           SKY/WX    TMP DP  RH WIND       PRES   REMARKS
MT STERLING*   CLOUDY    48  32  53 NW6       30.29S                  
FLEMING/MASON* PTSUNNY   47  29  50 NW9       30.28S                  
DANVILLE*      CLOUDY    45  32  61 CALM      30.30S                  
LEXINGTON      PTSUNNY   49  32  52 N10       30.29R                  
FRANKFORT        N/A     50  29  44 NW6       30.28S                  
LOUISVILLE     PTSUNNY   54  31  41 N10       30.31S                  
GLASGOW*       CLOUDY    49  32  52 N6        30.32S                  
BOWLING GREEN  PTSUNNY   52  32  46 N7        30.33S                  


Current NOWCAST not available:
Nowcasts are not issued routinely during fair weather. Only when
precipitation or other significant weather is occuring in this county will these
forecasts be issued. Currently, there is no short term forecast in effect.


Fire Weather Forecast For SCOTT County, KY
Provided by the National Weather Service:

Issued at: Thu Apr 19 17:05:01 EDT 2018


                      Tonight      Fri          Fri Night    Sat          

CLOUD COVER           MClear       Clear        Clear        MClear       
PRECIP TYPE           NONE         NONE         NONE         NONE         
CHANCE PRECIP (%)     0            0            0            0            
TEMP (24H TREND)      31 (-6)      59 (+8)      34           64           
RH % (24H TREND)      85 (-2)      34 (-15)     78           34           
20FTWND-VAL/AM(MPH)                Lgt/Var                   E  6         
20FTWND-RDG/PM(MPH)   Lgt/Var      NE  6        Lgt/Var      E  6         
PRECIP AMOUNT         0.00         0.00         0.00         0.00         
MIXING HGT(FT-AGL/MSL)             4607                      4618         
TRANSPORT WND (MPH)                NE 10                     NE  7        
VENT RATE (KT-FT)                  42598                     28765        
DISPERSION                         Fair                      Poor         
DSI                   SLGT UNSTBL  SLGT UNSTBL  STBL         SLGT UNSTBL  
LAL                   1            1            1            1            
HAINES INDEX          3            4            4            5            
ADI EARLY             11 POOR      34 FAIR      4 VERY POOR  33 FAIR      
ADI LATE              4 VERY POOR  43 GEN GOOD  3 VERY POOR  32 FAIR      
MAX LVORI EARLY       3            4            3            4            
MAX LVORI LATE        5            2            4            2            

REMARKS...ADI IS ATMOSPHERIC DISPERSION INDEX BY LAVDAS.        
LVORI IS LOW VISIBILITY OCCURRENCE RISK INDEX.

.SUNDAY...Mostly cloudy. Lows in the lower 40s. Highs in the mid
60s. Northeast winds around 5 mph. 
.MONDAY...Mostly cloudy with a 50 percent chance of rain showers.
Lows in the upper 40s. Highs in the lower 60s. East winds 5 to
10 mph. 
.TUESDAY...Cloudy with a 50 percent chance of rain showers. Lows
in the upper 40s. Highs in the mid 60s. East winds 5 to 10 mph. 
.WEDNESDAY...Mostly cloudy with a 50 percent chance of rain
showers. Lows in the upper 40s. Highs in the lower 60s. West
winds up to 10 mph. 
.THURSDAY...Mostly cloudy. Lows in the mid 40s. Highs in the mid
60s. West winds 5 to 10 mph. 

SPC's Fire Weather Web Tool (Excellent!), SPC's Fire Weather Outlooks, NWS Fire Weather WEB, Fire Danger Class Map,
Keetch-Byram Drought Index, ROMAN Web, Haines Index ,
WFAS's 10-hr Dead Fuel Moist., WFAS's 100-hr Dead Fuel Moist., Probablity of Ignition, Visual blackness Map, Palmer Drought Index, HPC's Rainfall Forecast Maps


Hazardous Weather Outlook For SCOTT County, Kentucky
338 PM EDT Thu Apr 19 2018

   FREEZE WARNING IN EFFECT FROM 1 AM TO 10 AM EDT FRIDAY  

This hazardous weather outlook is for portions of south central
Indiana and Central Kentucky.

 DAY ONE  Tonight.

Freezing temperatures and patchy frost later tonight into Friday 
morning could damage sensitive vegetation, especially in sheltered
valleys of southeast Indiana and the Bluegrass region of Kentucky. 

 DAYS TWO THROUGH SEVEN  Friday through Wednesday.

No hazardous weather is expected at this time.

 SPOTTER INFORMATION STATEMENT  

Spotter activation is not needed at this time.

Latest SCOTT County, Kentucky Watches, Warnings and Advisories.
Additional Drought Info.: UKAWC Drought Page, Kentucky Drought Watch


7-Day Forecast For SCOTT County, KY


FREEZE WARNING IN EFFECT FROM 1 AM TO 10 AM EDT FRIDAY

TONIGHT
Mostly clear. Areas of frost after midnight. Lows in the lower 30s. North winds 5 to 10 mph.

FRIDAY
Sunny. Areas of frost. Highs in the upper 50s. Northeast winds 5 to 10 mph.

FRIDAY NIGHT
Clear. Areas of frost. Lows in the mid 30s. Northeast winds 5 to 10 mph.

SATURDAY
Mostly sunny. Areas of frost. Highs in the lower 60s. East winds 5 to 10 mph.

SATURDAY NIGHT
Partly cloudy. Lows in the lower 40s. Northeast winds 5 to 10 mph.

SUNDAY
Mostly cloudy. Highs in the mid 60s.

SUNDAY NIGHT
Mostly cloudy with a 20 percent chance of showers. Lows in the upper 40s.

MONDAY
Mostly cloudy with a 50 percent chance of showers. Highs in the lower 60s.

MONDAY NIGHT
Cloudy with a 50 percent chance of showers. Lows in the upper 40s.

TUESDAY
Mostly cloudy with a 40 percent chance of showers. Highs in the mid 60s.

TUESDAY NIGHT
Mostly cloudy with a 30 percent chance of showers. Lows in the upper 40s.

WEDNESDAY
Mostly cloudy with a 50 percent chance of showers. Highs in the lower 60s.

WEDNESDAY NIGHT
Partly cloudy with a 50 percent chance of showers. Lows in the mid 40s.

THURSDAY
Partly cloudy with a 20 percent chance of showers. Highs in the mid 60s.

Ag Weather Center, Department of Biosystems & Agricultural Engineering, University of Kentucky